Location: Caltech
(34.1382°N, 118.1253°W)
Time: 23:46:55
(UTC-07:00)

Tiros 1 despin weight - Visible Passes

Search period start: 17 August 2017 00:00
Search period end: 27 August 2017 00:00
Orbit: 595 x 644 km, 48.2° (Epoch: 18 August)

Date Brightness Start Highest point End Pass type
(mag) Time Alt. Az. Time Alt. Az. Time Alt. Az.
17 Aug ? 21:27:38 10° WNW 21:30:40 17° NNW 21:33:43 10° NNE visible
17 Aug ? 23:11:19 10° NNW 23:12:57 13° N 23:12:57 13° N visible
18 Aug ? 20:01:32 10° W 20:05:29 31° NNW 20:09:30 10° NE visible
18 Aug ? 21:45:45 10° NW 21:48:11 14° N 21:50:38 10° NNE visible
18 Aug ? 23:28:19 10° NNW 23:28:55 12° NNW 23:28:55 12° NNW visible
19 Aug ? 20:19:27 10° WNW 20:22:49 21° NNW 20:26:13 10° NNE visible
19 Aug ? 22:03:34 10° NNW 22:05:46 13° N 22:07:47 10° NNE visible
20 Aug ? 20:37:34 10° NW 20:40:16 16° NNW 20:43:00 10° NNE visible
20 Aug ? 22:20:47 10° NNW 22:23:20 15° N 22:23:43 14° NNE visible
21 Aug ? 20:55:36 10° NNW 20:57:49 13° N 21:00:04 10° NNE visible
21 Aug ? 22:37:38 10° NNW 22:39:37 17° N 22:39:37 17° N visible
22 Aug ? 21:13:09 10° NNW 21:15:24 13° N 21:17:39 10° NE visible
22 Aug ? 22:54:21 10° NNW 22:55:33 16° NNW 22:55:33 16° NNW visible
23 Aug ? 21:30:10 10° NNW 21:32:57 16° NNE 21:34:25 14° NE visible
23 Aug ? 23:11:05 10° NW 23:11:29 12° NW 23:11:29 12° NW visible
24 Aug ? 20:05:20 10° NNW 20:07:28 13° N 20:09:35 10° NNE visible
24 Aug ? 21:46:55 10° NNW 21:50:22 21° NNE 21:50:22 21° NNE visible
25 Aug ? 20:22:38 10° NNW 20:25:01 14° N 20:27:27 10° NE visible
25 Aug ? 22:03:37 10° NW 22:06:21 27° N 22:06:21 27° N visible
26 Aug ? 20:39:29 10° NNW 20:42:32 18° NNE 20:45:17 11° ENE visible
26 Aug ? 22:20:23 10° NW 22:22:21 25° NW 22:22:21 25° NW visible
